Regional Weather Roundup
Issued by NWS Newport/Morehead, NC

Current Version | Previous Version | Text Only | Print | Product List | Glossary On
Versions: 1 2 3 4 5 6 7 8 9 10 11 12 13 14 15 16 17 18 19 20 21 22 23 24 25 26 27 28 29 30 31 32 33 34 35 36 37 38 39 40 41 42 43 44 45 46 47 48 49 50
000 ASUS42 KMHX 180410 RWRMHX WEATHER ROUNDUP FOR EASTERN NORTH CAROLINA NATIONAL WEATHER SERVICE NEWPORT/MOREHEAD CITY NC 1200 AM EDT THU SEP 18 2014 NOTE: "FAIR" INDICATES FEW OR NO CLOUDS BELOW 12,000 FEET WITH NO SIGNIFICANT WEATHER AND/OR OBSTRUCTIONS TO VISIBILITY NCZ015>017-031-032-045>047-102-103-180500- NORTH COAST CITY SKY/WX TMP DP RH WIND PRES REMARKS EDENTON CLOUDY 65 62 89 N3 29.96F ELIZABETH CITY NOT AVBL KITTY HAWK CLEAR 71 59 66 NE8 29.94S MANTEO MOCLDY 70 60 70 NE10 29.95S $$ NCZ045>047-081-094-103-104-180500- CENTRAL COAST CITY SKY/WX TMP DP RH WIND PRES REMARKS FRISCO CLEAR 69 63 81 NE8 29.92S SWANQUARTER N/A 68 N/A N/A NE6 29.91S $$ NCZ095-097-098-100-101-180500- SOUTHERN COAST CITY SKY/WX TMP DP RH WIND PRES REMARKS BEAUFORT CLEAR 71 66 84 NE6 29.92S CEDAR ISLAND N/A 75 N/A N/A NE16 29.97S JACKSONVILLE CLEAR 68 64 87 N5 29.93S NEWPORT NOT AVBL PINEY ISLAND PTCLDY 76 65 68 NE14 29.92S WILMINGTON CLEAR 69 67 93 NE8 29.93R $$ NCZ011>013-027>030-043-044-078>080-089-090>093-098-180500- COASTAL PLAIN CITY SKY/WX TMP DP RH WIND PRES REMARKS AHOSKIE MOCLDY 62 60 91 CALM 29.98S CLINTON CLEAR 68 65 91 CALM 29.95S ELIZABETHTOWN MOCLDY 69 68 97 CALM 29.94R GOLDSBORO MOCLDY 67 66 98 CALM 29.94S GREENVILLE MOCLDY 64 63 94 CALM 29.98S HAVELOCK CLEAR 70 65 84 NE8 29.94S KENANSVILLE CLEAR 66 64 94 CALM 29.95S KINSTON MOCLDY 67 63 87 NE5 29.96S NEW BERN CLEAR 69 63 81 NE6 29.95S RICHLANDS CLEAR 66 61 82 N6 29.94S ROANOKE RAPIDS NOT AVBL ROCKY MOUNT MOCLDY 64 60 87 CALM 29.97R WASHINGTON PTCLDY 64 61 91 NE3 29.95F WHITEVILLE CLOUDY 71 67 88 NE6 29.93R $$ AMZ130-135-150-152-154-156-158-170-250-252-270-ANZ085-086-088-633-658-670-180500- MARINE OBSERVATIONS STATION/POSITION TIME TEMP WIND PRES WAVE SWELL AIR SEA DIR/SP/G HT/PER HT/PER (UTC) (F) (DEG/KT/KT) (MB) (FT/S) (FT/S) CHESAPEAKE LIGHT 0300 70 70/ 13/ 15 1015.5 BUOY 44014 0400 72 77 30/ 14/ 17 1013.6 5/14 5/14 DUCK 0400 72 76 60/ 12/ 16 1013.6 2E DUCK 0400 N/A 4/14 3/14 OREGON INLET 0400 72 76 30/ 11/ 14 1013.7 BUOY 44095 0400 76 N/A 5/13 3/13 20E OREGON INLET NOT AVBL HATTERAS CG 0400 73 78 40/ 9/ 13 1013.5 DIAMOND BUOY 0400 74 30/ 14/ 17 1012.5 6/14 5/14 CAPE LOOKOUT 0300 76 40/ 16/ 18 1012.8 BEAUFORT LAB 0400 71 80 30/ 5/ 8 1012.6 30 SE NEW RIVER 0400 77 82 50/ 16/ 17 1012.7 5/11 3/11 5 SE WRIGHTSVILL 0300 74 81 70/ 19/ 23 N/A BUOY 41002 0251 78 82 360/ 6/ 10 1011.5 6/11 5/11 BUOY 41004 0400 81 83 20/ 4/ 6 1012.5 4/13 3/13 $$

USA.gov is the U.S. government's official web portal to all federal, state and local government web resources and services.